Time,TemperatureF,DewpointF,PressureIn,WindDirection,WindDirectionDegrees,WindSpeedMPH,WindSpeedGustMPH,Humidity,HourlyPrecipIn,Conditions,Clouds,dailyrainin,SoftwareType,DateUTC
2013-01-09 00:03:00,38.0,28.0,-100.00,SE,135,5.0,9.0,68,0.00,,,-99.99,,2013-01-09 05:03:00,
2013-01-09 00:12:00,38.0,28.0,-100.00,ESE,115,5.0,9.0,68,0.00,,,-99.99,,2013-01-09 05:12:00,
2013-01-09 00:22:00,38.0,28.0,-100.00,ESE,115,4.0,10.0,68,0.00,,,-99.99,,2013-01-09 05:22:00,
2013-01-09 00:33:00,38.0,28.0,-100.00,SE,125,4.0,9.0,68,0.00,,,-99.99,,2013-01-09 05:33:00,
2013-01-09 00:43:00,37.0,28.0,-100.00,SE,130,5.0,12.0,68,0.00,,,-99.99,,2013-01-09 05:43:00,
2013-01-09 00:52:00,37.0,28.0,-100.00,SE,135,6.0,10.0,68,0.00,,,-99.99,,2013-01-09 05:52:00,
2013-01-09 01:02:00,37.0,28.0,-100.00,SE,130,4.0,12.0,68,0.00,,,-99.99,,2013-01-09 06:02:00,
2013-01-09 01:12:00,37.0,28.0,-100.00,SE,135,4.0,12.0,69,0.00,,,-99.99,,2013-01-09 06:12:00,
2013-01-09 01:22:00,38.0,28.0,-100.00,SE,130,7.0,15.0,68,0.00,,,-99.99,,2013-01-09 06:22:00,
2013-01-09 01:32:00,38.0,28.0,-100.00,SE,140,7.0,12.0,68,0.00,,,-99.99,,2013-01-09 06:32:00,
2013-01-09 01:42:00,37.0,28.0,-100.00,ESE,110,6.0,12.0,69,0.00,,,-99.99,,2013-01-09 06:42:00,
2013-01-09 01:52:00,37.0,28.0,-100.00,ESE,110,6.0,12.0,69,0.00,,,-99.99,,2013-01-09 06:52:00,
2013-01-09 02:02:00,37.0,28.0,-100.00,ESE,110,6.0,12.0,69,0.00,,,-99.99,,2013-01-09 07:02:00,
2013-01-09 02:12:00,38.0,28.0,-100.00,SE,140,6.0,11.0,69,0.00,,,-99.99,,2013-01-09 07:12:00,
2013-01-09 02:22:00,37.0,28.0,-100.00,SE,125,4.0,10.0,69,0.00,,,-99.99,,2013-01-09 07:22:00,
2013-01-09 02:32:00,38.0,29.0,-100.00,SE,130,6.0,12.0,69,0.00,,,-99.99,,2013-01-09 07:32:00,
2013-01-09 02:42:00,38.0,28.0,-100.00,SE,135,7.0,11.0,68,0.00,,,-99.99,,2013-01-09 07:42:00,
2013-01-09 02:52:00,38.0,28.0,-100.00,SE,135,7.0,11.0,68,0.00,,,-99.99,,2013-01-09 07:52:00,
2013-01-09 03:02:00,38.0,28.0,-100.00,SE,130,6.0,12.0,68,0.00,,,-99.99,,2013-01-09 08:02:00,
2013-01-09 03:12:00,37.0,28.0,-100.00,ESE,115,6.0,12.0,69,0.00,,,-99.99,,2013-01-09 08:12:00,
2013-01-09 03:22:00,38.0,28.0,-100.00,SE,135,6.0,15.0,69,0.00,,,-99.99,,2013-01-09 08:22:00,
2013-01-09 03:32:00,38.0,29.0,-100.00,SE,140,6.0,12.0,68,0.00,,,-99.99,,2013-01-09 08:32:00,
2013-01-09 03:42:00,38.0,29.0,-100.00,SE,140,6.0,13.0,68,0.00,,,-99.99,,2013-01-09 08:42:00,
2013-01-09 03:52:00,38.0,29.0,-100.00,SE,135,6.0,12.0,68,0.00,,,-99.99,,2013-01-09 08:52:00,
2013-01-09 04:02:00,38.0,29.0,-100.00,SE,140,7.0,14.0,67,0.00,,,-99.99,,2013-01-09 09:02:00,
2013-01-09 04:12:00,38.0,29.0,-100.00,SE,140,7.0,14.0,68,0.00,,,-99.99,,2013-01-09 09:12:00,
2013-01-09 04:22:00,39.0,29.0,-100.00,SE,145,8.0,14.0,67,0.00,,,-99.99,,2013-01-09 09:22:00,
2013-01-09 04:32:00,39.0,29.0,-100.00,SE,145,8.0,14.0,67,0.00,,,-99.99,,2013-01-09 09:32:00,
2013-01-09 04:42:00,39.0,29.0,-100.00,ESE,120,8.0,15.0,67,0.00,,,-99.99,,2013-01-09 09:42:00,
2013-01-09 04:53:00,39.0,29.0,-100.00,SSE,150,6.0,16.0,68,0.00,,,-99.99,,2013-01-09 09:53:00,
2013-01-09 05:02:00,39.0,30.0,-100.00,SE,145,6.0,12.0,68,0.00,,,-99.99,,2013-01-09 10:02:00,
2013-01-09 05:12:00,40.0,30.0,-100.00,South,175,8.0,13.0,68,0.00,,,-99.99,,2013-01-09 10:12:00,
2013-01-09 05:22:00,40.0,30.0,-100.00,South,175,8.0,13.0,68,0.00,,,-99.99,,2013-01-09 10:22:00,
2013-01-09 05:32:00,40.0,30.0,-100.00,South,175,8.0,13.0,68,0.00,,,-99.99,,2013-01-09 10:32:00,
2013-01-09 05:42:00,40.0,30.0,-100.00,South,170,7.0,13.0,69,0.00,,,-99.99,,2013-01-09 10:42:00,
2013-01-09 05:52:00,40.0,30.0,-100.00,South,170,7.0,13.0,69,0.00,,,-99.99,,2013-01-09 10:52:00,
2013-01-09 06:02:00,40.0,31.0,-100.00,South,175,7.0,12.0,70,0.00,,,-99.99,,2013-01-09 11:02:00,
2013-01-09 06:12:00,40.0,31.0,-100.00,South,185,7.0,16.0,69,0.00,,,-99.99,,2013-01-09 11:12:00,
2013-01-09 06:22:00,41.0,31.0,-100.00,South,180,8.0,16.0,69,0.00,,,-99.99,,2013-01-09 11:22:00,
2013-01-09 06:33:00,41.0,31.0,-100.00,South,180,8.0,16.0,69,0.00,,,-99.99,,2013-01-09 11:33:00,
2013-01-09 06:42:00,41.0,32.0,-100.00,South,185,9.0,16.0,68,0.00,,,-99.99,,2013-01-09 11:42:00,
2013-01-09 06:52:00,41.0,32.0,-100.00,SSW,195,8.0,16.0,69,0.00,,,-99.99,,2013-01-09 11:52:00,
2013-01-09 07:03:00,42.0,32.0,-100.00,SSW,210,11.0,22.0,67,0.00,,,-99.99,,2013-01-09 12:03:00,
2013-01-09 07:12:00,42.0,32.0,-100.00,South,185,10.0,17.0,67,0.00,,,-99.99,,2013-01-09 12:12:00,
2013-01-09 07:23:00,42.0,32.0,-100.00,SSW,205,13.0,21.0,68,0.00,,,-99.99,,2013-01-09 12:23:00,
2013-01-09 07:33:00,42.0,32.0,-100.00,SSW,205,13.0,21.0,68,0.00,,,-99.99,,2013-01-09 12:33:00,
2013-01-09 07:43:00,40.0,33.0,-100.00,SSW,205,10.0,17.0,76,0.00,,,-99.99,,2013-01-09 12:43:00,
2013-01-09 07:52:00,40.0,34.0,-100.00,SW,220,11.0,20.0,79,1.69,,,-99.99,,2013-01-09 12:52:00,
2013-01-09 08:03:00,39.0,34.0,-100.00,South,180,7.0,16.0,81,0.55,,,-99.99,,2013-01-09 13:03:00,
2013-01-09 08:12:00,39.0,34.0,-100.00,SSW,210,10.0,16.0,83,1.10,,,-99.99,,2013-01-09 13:12:00,
2013-01-09 08:23:00,39.0,34.0,-100.00,South,170,8.0,14.0,84,0.55,,,-99.99,,2013-01-09 13:23:00,
2013-01-09 08:33:00,38.0,35.0,-100.00,SSW,195,9.0,15.0,85,0.00,,,-99.99,,2013-01-09 13:33:00,
2013-01-09 08:43:00,39.0,35.0,-100.00,SSW,200,7.0,14.0,85,0.00,,,-99.99,,2013-01-09 13:43:00,
2013-01-09 08:52:00,38.0,35.0,-100.00,South,190,7.0,16.0,85,0.00,,,-99.99,,2013-01-09 13:52:00,
2013-01-09 09:03:00,38.0,35.0,-100.00,SSW,195,9.0,15.0,86,0.00,,,-99.99,,2013-01-09 14:03:00,
2013-01-09 09:12:00,39.0,35.0,-100.00,South,185,8.0,19.0,86,0.00,,,-99.99,,2013-01-09 14:12:00,
2013-01-09 09:23:00,39.0,35.0,-100.00,South,175,7.0,15.0,86,0.00,,,-99.99,,2013-01-09 14:23:00,
2013-01-09 09:33:00,39.0,35.0,-100.00,South,180,7.0,16.0,86,0.00,,,-99.99,,2013-01-09 14:33:00,
2013-01-09 09:43:00,39.0,35.0,-100.00,South,185,7.0,17.0,86,0.00,,,-99.99,,2013-01-09 14:43:00,
2013-01-09 09:53:00,39.0,35.0,-100.00,SSW,200,9.0,15.0,86,0.00,,,-99.99,,2013-01-09 14:53:00,
2013-01-09 10:03:00,39.0,36.0,-100.00,SSW,205,10.0,14.0,86,0.00,,,-99.99,,2013-01-09 15:03:00,
2013-01-09 10:12:00,39.0,35.0,-100.00,SSW,205,9.0,15.0,86,0.00,,,-99.99,,2013-01-09 15:12:00,
2013-01-09 10:23:00,40.0,36.0,-100.00,SSW,205,11.0,18.0,86,0.00,,,-99.99,,2013-01-09 15:23:00,
2013-01-09 10:33:00,40.0,36.0,-100.00,SSW,205,11.0,18.0,86,0.00,,,-99.99,,2013-01-09 15:33:00,
2013-01-09 10:42:00,40.0,36.0,-100.00,SSW,205,11.0,18.0,86,0.00,,,-99.99,,2013-01-09 15:42:00,
2013-01-09 10:53:00,40.0,36.0,-100.00,SSW,205,11.0,18.0,86,0.00,,,-99.99,,2013-01-09 15:53:00,
2013-01-09 11:03:00,40.0,36.0,-100.00,SSW,205,10.0,17.0,86,0.00,,,-99.99,,2013-01-09 16:03:00,
2013-01-09 11:12:00,40.0,36.0,-100.00,SSW,210,12.0,20.0,86,0.00,,,-99.99,,2013-01-09 16:12:00,
2013-01-09 11:23:00,40.0,36.0,-100.00,South,185,12.0,22.0,85,0.00,,,-99.99,,2013-01-09 16:23:00,
2013-01-09 11:33:00,40.0,36.0,-100.00,SSW,200,12.0,21.0,85,0.00,,,-99.99,,2013-01-09 16:33:00,
2013-01-09 11:43:00,40.0,36.0,-100.00,SW,215,12.0,22.0,84,0.00,,,-99.99,,2013-01-09 16:43:00,
2013-01-09 11:52:00,40.0,36.0,-100.00,SSW,195,12.0,19.0,84,0.00,,,-99.99,,2013-01-09 16:52:00,
2013-01-09 12:03:00,41.0,36.0,-100.00,SSW,200,9.0,19.0,82,0.00,,,-99.99,,2013-01-09 17:03:00,
2013-01-09 12:12:00,41.0,36.0,-100.00,SW,225,9.0,19.0,81,0.00,,,-99.99,,2013-01-09 17:12:00,
2013-01-09 12:23:00,41.0,36.0,-100.00,SSW,205,12.0,19.0,80,0.00,,,-99.99,,2013-01-09 17:23:00,
2013-01-09 12:33:00,42.0,36.0,-100.00,SSW,210,11.0,20.0,78,0.00,,,-99.99,,2013-01-09 17:33:00,
2013-01-09 12:43:00,42.0,35.0,-100.00,SW,215,12.0,19.0,78,0.00,,,-99.99,,2013-01-09 17:43:00,
2013-01-09 12:53:00,42.0,35.0,-100.00,SSW,200,12.0,19.0,77,0.00,,,-99.99,,2013-01-09 17:53:00,
2013-01-09 13:03:00,42.0,35.0,-100.00,SSW,210,14.0,22.0,77,0.00,,,-99.99,,2013-01-09 18:03:00,
2013-01-09 13:12:00,42.0,35.0,-100.00,SSW,205,10.0,17.0,75,0.00,,,-99.99,,2013-01-09 18:12:00,
2013-01-09 13:24:00,42.0,35.0,-100.00,SSW,200,9.0,14.0,74,0.00,,,-99.99,,2013-01-09 18:24:00,
2013-01-09 13:33:00,42.0,35.0,-100.00,SSW,205,10.0,17.0,75,0.00,,,-99.99,,2013-01-09 18:33:00,
2013-01-09 13:43:00,42.0,34.0,-100.00,SSW,200,11.0,18.0,75,0.00,,,-99.99,,2013-01-09 18:43:00,
2013-01-09 13:53:00,42.0,34.0,-100.00,SSW,210,12.0,18.0,74,0.00,,,-99.99,,2013-01-09 18:53:00,
2013-01-09 14:03:00,42.0,34.0,-100.00,SSW,210,12.0,18.0,74,0.00,,,-99.99,,2013-01-09 19:03:00,
2013-01-09 14:13:00,42.0,34.0,-100.00,SSW,210,10.0,16.0,73,0.00,,,-99.99,,2013-01-09 19:13:00,
2013-01-09 14:23:00,42.0,34.0,-100.00,SSW,205,12.0,18.0,74,0.00,,,-99.99,,2013-01-09 19:23:00,
2013-01-09 14:33:00,42.0,34.0,-100.00,SSW,205,11.0,19.0,74,0.00,,,-99.99,,2013-01-09 19:33:00,
2013-01-09 14:43:00,42.0,34.0,-100.00,SSW,195,12.0,19.0,73,0.00,,,-99.99,,2013-01-09 19:43:00,
2013-01-09 14:52:00,42.0,34.0,-100.00,SSW,210,7.0,17.0,73,0.00,,,-99.99,,2013-01-09 19:52:00,
2013-01-09 15:03:00,41.0,34.0,-100.00,SSW,195,11.0,22.0,75,0.00,,,-99.99,,2013-01-09 20:03:00,
2013-01-09 15:12:00,41.0,34.0,-100.00,SSW,195,11.0,22.0,75,0.00,,,-99.99,,2013-01-09 20:12:00,
2013-01-09 15:23:00,41.0,34.0,-100.00,SSW,200,12.0,22.0,74,0.00,,,-99.99,,2013-01-09 20:23:00,
2013-01-09 15:33:00,41.0,34.0,-100.00,SSW,205,10.0,17.0,74,0.00,,,-99.99,,2013-01-09 20:33:00,
2013-01-09 15:43:00,41.0,34.0,-100.00,SSW,205,10.0,17.0,74,0.00,,,-99.99,,2013-01-09 20:43:00,
2013-01-09 15:53:00,41.0,34.0,-100.00,SSW,205,13.0,19.0,75,0.00,,,-99.99,,2013-01-09 20:53:00,
2013-01-09 16:03:00,41.0,34.0,-100.00,SSW,200,12.0,16.0,75,0.00,,,-99.99,,2013-01-09 21:03:00,
2013-01-09 16:13:00,41.0,34.0,-100.00,SW,220,7.0,14.0,75,0.00,,,-99.99,,2013-01-09 21:13:00,
2013-01-09 16:23:00,41.0,34.0,-100.00,SSW,195,9.0,17.0,76,0.00,,,-99.99,,2013-01-09 21:23:00,
2013-01-09 16:33:00,40.0,34.0,-100.00,SSW,200,7.0,19.0,76,0.00,,,-99.99,,2013-01-09 21:33:00,
2013-01-09 16:43:00,40.0,34.0,-100.00,SW,225,9.0,16.0,77,0.00,,,-99.99,,2013-01-09 21:43:00,
2013-01-09 16:52:00,40.0,34.0,-100.00,SW,225,9.0,16.0,77,0.00,,,-99.99,,2013-01-09 21:52:00,
2013-01-09 17:03:00,40.0,33.0,-100.00,SSW,200,9.0,14.0,76,0.00,,,-99.99,,2013-01-09 22:03:00,
2013-01-09 17:12:00,40.0,33.0,-100.00,SSW,200,9.0,16.0,76,0.00,,,-99.99,,2013-01-09 22:12:00,
2013-01-09 17:23:00,39.0,33.0,-100.00,SW,220,7.0,16.0,77,0.00,,,-99.99,,2013-01-09 22:23:00,
2013-01-09 17:33:00,39.0,33.0,-100.00,SW,215,8.0,15.0,77,0.00,,,-99.99,,2013-01-09 22:33:00,
2013-01-09 17:43:00,39.0,33.0,-100.00,SW,215,7.0,14.0,78,0.00,,,-99.99,,2013-01-09 22:43:00,
2013-01-09 17:52:00,38.0,32.0,-100.00,SW,220,7.0,14.0,79,0.00,,,-99.99,,2013-01-09 22:52:00,
2013-01-09 18:03:00,38.0,33.0,-100.00,SSW,205,7.0,11.0,80,0.00,,,-99.99,,2013-01-09 23:03:00,
2013-01-09 18:13:00,38.0,32.0,-100.00,SSW,210,6.0,11.0,81,0.00,,,-99.99,,2013-01-09 23:13:00,
2013-01-09 18:22:00,37.0,33.0,-100.00,SSW,210,7.0,12.0,81,0.00,,,-99.99,,2013-01-09 23:22:00,
2013-01-09 18:33:00,37.0,32.0,-100.00,SW,225,6.0,12.0,82,0.00,,,-99.99,,2013-01-09 23:33:00,
2013-01-09 18:43:00,37.0,33.0,-100.00,SSW,195,7.0,13.0,82,0.00,,,-99.99,,2013-01-09 23:43:00,
2013-01-09 18:52:00,37.0,33.0,-100.00,SSW,195,7.0,13.0,82,0.00,,,-99.99,,2013-01-09 23:52:00,
2013-01-09 19:03:00,37.0,33.0,-100.00,SSW,195,7.0,13.0,82,0.00,,,-99.99,,2013-01-10 00:03:00,
2013-01-09 19:12:00,37.0,32.0,-100.00,SW,215,6.0,10.0,84,0.00,,,-99.99,,2013-01-10 00:12:00,
2013-01-09 19:22:00,37.0,32.0,-100.00,SW,220,5.0,12.0,84,0.00,,,-99.99,,2013-01-10 00:22:00,
2013-01-09 19:32:00,37.0,32.0,-100.00,SW,215,6.0,11.0,84,0.00,,,-99.99,,2013-01-10 00:32:00,
2013-01-09 19:42:00,36.0,32.0,-100.00,SSW,210,5.0,11.0,84,0.00,,,-99.99,,2013-01-10 00:42:00,
2013-01-09 19:52:00,36.0,32.0,-100.00,SW,220,5.0,9.0,84,0.00,,,-99.99,,2013-01-10 00:52:00,
2013-01-09 20:02:00,36.0,32.0,-100.00,SW,215,5.0,9.0,84,0.00,,,-99.99,,2013-01-10 01:02:00,
2013-01-09 20:12:00,36.0,32.0,-100.00,SW,225,6.0,9.0,84,0.00,,,-99.99,,2013-01-10 01:12:00,
2013-01-09 20:22:00,36.0,32.0,-100.00,SSW,210,5.0,9.0,84,0.00,,,-99.99,,2013-01-10 01:22:00,
2013-01-09 20:33:00,36.0,31.0,-100.00,SSW,210,6.0,9.0,83,0.00,,,-99.99,,2013-01-10 01:33:00,
2013-01-09 20:43:00,36.0,31.0,-100.00,SW,225,4.0,9.0,82,0.00,,,-99.99,,2013-01-10 01:43:00,
2013-01-09 20:52:00,36.0,31.0,-100.00,SSW,205,5.0,9.0,82,0.00,,,-99.99,,2013-01-10 01:52:00,
2013-01-09 21:03:00,36.0,31.0,-100.00,SSW,210,4.0,9.0,82,0.00,,,-99.99,,2013-01-10 02:03:00,
2013-01-09 21:12:00,36.0,31.0,-100.00,SSW,200,5.0,9.0,81,0.00,,,-99.99,,2013-01-10 02:12:00,
2013-01-09 21:22:00,35.0,30.0,-100.00,SW,215,4.0,7.0,80,0.00,,,-99.99,,2013-01-10 02:22:00,
2013-01-09 21:32:00,35.0,30.0,-100.00,SW,220,4.0,8.0,80,0.00,,,-99.99,,2013-01-10 02:32:00,
2013-01-09 21:42:00,35.0,30.0,-100.00,SW,220,4.0,8.0,80,0.00,,,-99.99,,2013-01-10 02:42:00,
2013-01-09 21:52:00,35.0,30.0,-100.00,SW,220,4.0,8.0,80,0.00,,,-99.99,,2013-01-10 02:52:00,
2013-01-09 22:03:00,36.0,29.0,-100.00,SSW,195,6.0,11.0,77,0.00,,,-99.99,,2013-01-10 03:03:00,
2013-01-09 22:12:00,36.0,29.0,-100.00,SSW,205,4.0,8.0,77,0.00,,,-99.99,,2013-01-10 03:12:00,
2013-01-09 22:22:00,36.0,29.0,-100.00,SSW,205,4.0,9.0,76,0.00,,,-99.99,,2013-01-10 03:22:00,
2013-01-09 22:33:00,35.0,29.0,-100.00,SW,220,4.0,7.0,77,0.00,,,-99.99,,2013-01-10 03:33:00,
2013-01-09 22:42:00,35.0,29.0,-100.00,SW,225,4.0,7.0,78,0.00,,,-99.99,,2013-01-10 03:42:00,
2013-01-09 22:52:00,35.0,29.0,-100.00,SW,225,3.0,6.0,78,0.00,,,-99.99,,2013-01-10 03:52:00,
2013-01-09 23:02:00,35.0,29.0,-100.00,SSW,210,3.0,6.0,79,0.00,,,-99.99,,2013-01-10 04:02:00,
2013-01-09 23:12:00,35.0,29.0,-100.00,SW,215,4.0,6.0,80,0.00,,,-99.99,,2013-01-10 04:12:00,
2013-01-09 23:22:00,35.0,29.0,-100.00,SW,215,4.0,6.0,80,0.00,,,-99.99,,2013-01-10 04:22:00,
2013-01-09 23:32:00,34.0,29.0,-100.00,SSW,205,2.0,4.0,81,0.00,,,-99.99,,2013-01-10 04:32:00,
2013-01-09 23:42:00,34.0,29.0,-100.00,South,185,2.0,5.0,82,0.00,,,-99.99,,2013-01-10 04:42:00,
2013-01-09 23:52:00,34.0,29.0,-100.00,SSW,205,4.0,6.0,82,0.00,,,-99.99,,2013-01-10 04:52:00,